Time,TemperatureF,DewpointF,PressureIn,WindDirection,WindDirectionDegrees,WindSpeedMPH,WindSpeedGustMPH,Humidity,HourlyPrecipIn,Conditions,Clouds,dailyrainin,SolarRadiationWatts/m^2,SoftwareType,DateUTC
2013-05-19 00:00:00,65.3,64.1,29.96,ENE,58,0.0,0.0,96,0.00,,---,0.00,0.00,VWS V14.01,2013-05-19 04:00:00,
2013-05-19 00:10:00,65.0,63.8,29.96,ENE,58,0.0,0.0,96,0.00,,---,0.00,0.00,VWS V14.01,2013-05-19 04:10:00,
2013-05-19 00:15:00,64.9,63.7,29.95,ENE,58,0.0,0.0,96,0.00,,---,0.00,0.00,VWS V14.01,2013-05-19 04:15:00,
2013-05-19 00:20:00,64.8,63.6,29.95,ENE,58,0.0,0.0,96,0.00,,---,0.00,0.00,VWS V14.01,2013-05-19 04:20:00,
2013-05-19 00:25:00,64.6,63.4,29.95,ENE,58,0.0,0.0,96,0.00,,---,0.00,0.00,VWS V14.01,2013-05-19 04:25:00,
2013-05-19 00:30:00,64.6,63.4,29.95,ENE,58,0.0,0.0,96,0.00,,---,0.00,0.00,VWS V14.01,2013-05-19 04:30:00,
2013-05-19 00:35:00,64.8,63.6,29.95,ESE,118,0.0,0.0,96,0.00,,---,0.00,0.00,VWS V14.01,2013-05-19 04:35:00,
2013-05-19 00:40:00,64.5,63.3,29.95,NE,50,2.0,2.0,96,0.00,,---,0.00,0.00,VWS V14.01,2013-05-19 04:40:00,
2013-05-19 00:50:00,64.5,63.6,29.95,ENE,63,0.0,1.0,97,0.00,,---,0.00,0.00,VWS V14.01,2013-05-19 04:50:00,
2013-05-19 00:55:00,64.8,63.9,29.95,ENE,63,0.0,1.0,97,0.00,,---,0.00,0.00,VWS V14.01,2013-05-19 04:55:00,
2013-05-19 01:05:00,64.8,63.6,29.94,NE,49,0.0,1.0,96,0.00,,---,0.00,0.00,VWS V14.01,2013-05-19 05:05:00,
2013-05-19 01:16:00,65.0,64.1,29.94,NE,49,0.0,0.0,97,0.00,,---,0.00,0.00,VWS V14.01,2013-05-19 05:16:00,
2013-05-19 01:25:00,64.8,63.6,29.94,NE,49,0.0,0.0,96,0.00,,---,0.00,0.00,VWS V14.01,2013-05-19 05:25:00,
2013-05-19 01:30:00,64.6,63.7,29.94,NE,49,0.0,0.0,97,0.00,,---,0.00,0.00,VWS V14.01,2013-05-19 05:30:00,
2013-05-19 01:35:00,64.3,63.4,29.93,NE,49,0.0,1.0,97,0.00,,---,0.00,0.00,VWS V14.01,2013-05-19 05:35:00,
2013-05-19 01:50:00,64.3,63.7,29.93,NE,49,0.0,0.0,98,0.00,,---,0.00,0.00,VWS V14.01,2013-05-19 05:50:00,
2013-05-19 01:55:00,64.3,63.7,29.93,NE,49,0.0,0.0,98,0.00,,---,0.00,0.00,VWS V14.01,2013-05-19 05:55:00,
2013-05-19 02:00:00,64.3,63.7,29.93,NE,49,0.0,0.0,98,0.00,,---,0.00,0.00,VWS V14.01,2013-05-19 06:00:00,
2013-05-19 02:05:00,64.3,63.7,29.93,NE,49,0.0,0.0,98,0.00,,---,0.00,0.00,VWS V14.01,2013-05-19 06:05:00,
2013-05-19 02:20:00,64.0,63.4,29.93,NE,49,0.0,0.0,98,0.00,,---,0.00,0.00,VWS V14.01,2013-05-19 06:20:00,
2013-05-19 02:31:00,64.0,63.4,29.93,NE,49,0.0,0.0,98,0.00,,---,0.00,0.00,VWS V14.01,2013-05-19 06:31:00,
2013-05-19 02:40:00,64.0,63.4,29.92,NE,49,0.0,0.0,98,0.00,,---,0.00,0.00,VWS V14.01,2013-05-19 06:40:00,
2013-05-19 02:45:00,63.9,63.3,29.92,NE,49,0.0,0.0,98,0.00,,---,0.00,0.00,VWS V14.01,2013-05-19 06:45:00,
2013-05-19 02:50:00,64.0,63.4,29.92,NE,49,0.0,0.0,98,0.00,,---,0.00,0.00,VWS V14.01,2013-05-19 06:50:00,
2013-05-19 02:55:00,63.9,63.3,29.93,NE,49,0.0,0.0,98,0.00,,---,0.00,0.00,VWS V14.01,2013-05-19 06:55:00,
2013-05-19 03:00:00,63.8,63.2,29.93,NE,49,0.0,0.0,98,0.00,,---,0.00,0.00,VWS V14.01,2013-05-19 07:00:00,
2013-05-19 03:05:00,63.6,63.0,29.92,NE,49,0.0,0.0,98,0.00,,---,0.00,0.00,VWS V14.01,2013-05-19 07:05:00,
2013-05-19 03:15:00,63.3,62.7,29.93,NE,49,0.0,0.0,98,0.00,,---,0.00,0.00,VWS V14.01,2013-05-19 07:15:00,
2013-05-19 03:20:00,63.2,62.6,29.93,NE,49,0.0,0.0,98,0.00,,---,0.00,0.00,VWS V14.01,2013-05-19 07:20:00,
2013-05-19 03:30:00,63.0,62.4,29.93,NE,49,0.0,0.0,98,0.00,,---,0.00,0.00,VWS V14.01,2013-05-19 07:30:00,
2013-05-19 03:45:00,62.8,62.5,29.93,NE,49,0.0,0.0,99,0.00,,---,0.00,0.00,VWS V14.01,2013-05-19 07:45:00,
2013-05-19 03:50:00,62.9,62.3,29.93,NE,49,0.0,0.0,98,0.00,,---,0.00,0.00,VWS V14.01,2013-05-19 07:50:00,
2013-05-19 03:55:00,62.9,62.6,29.93,NE,49,0.0,0.0,99,0.00,,---,0.00,0.00,VWS V14.01,2013-05-19 07:55:00,
2013-05-19 04:05:00,62.6,62.0,29.93,NE,49,0.0,0.0,98,0.00,,---,0.00,0.00,VWS V14.01,2013-05-19 08:05:00,
2013-05-19 04:30:00,62.8,62.5,29.94,North,0,0.0,0.0,99,0.00,,---,0.00,0.00,VWS V14.01,2013-05-19 08:30:00,
2013-05-19 04:40:00,62.9,62.6,29.94,NE,49,0.0,0.0,99,0.00,,---,0.00,0.00,VWS V14.01,2013-05-19 08:40:00,
2013-05-19 04:50:00,62.7,62.4,29.95,NE,49,0.0,0.0,99,0.00,,---,0.00,0.00,VWS V14.01,2013-05-19 08:50:00,
2013-05-19 04:55:00,62.8,62.5,29.94,NE,49,0.0,0.0,99,0.00,,---,0.00,0.00,VWS V14.01,2013-05-19 08:55:00,
2013-05-19 05:00:00,62.6,62.3,29.94,NE,49,0.0,0.0,99,0.00,,---,0.00,0.00,VWS V14.01,2013-05-19 09:00:00,
2013-05-19 05:05:00,62.5,62.2,29.95,NE,49,0.0,0.0,99,0.00,,---,0.00,0.00,VWS V14.01,2013-05-19 09:05:00,
2013-05-19 05:15:00,62.5,62.2,29.95,NE,49,0.0,0.0,99,0.00,,---,0.00,0.00,VWS V14.01,2013-05-19 09:15:00,
2013-05-19 05:20:00,62.7,62.4,29.95,NE,49,0.0,1.0,99,0.00,,---,0.00,0.00,VWS V14.01,2013-05-19 09:20:00,
2013-05-19 05:25:00,62.6,62.3,29.95,NE,49,0.0,0.0,99,0.00,,---,0.00,0.00,VWS V14.01,2013-05-19 09:25:00,
2013-05-19 05:30:00,62.3,62.0,29.95,NE,49,0.0,0.0,99,0.00,,---,0.00,0.00,VWS V14.01,2013-05-19 09:30:00,
2013-05-19 05:40:00,62.4,62.1,29.95,NE,49,0.0,0.0,99,0.00,,---,0.00,0.00,VWS V14.01,2013-05-19 09:40:00,
2013-05-19 05:45:00,62.6,62.3,29.95,NE,49,0.0,0.0,99,0.00,,---,0.00,0.00,VWS V14.01,2013-05-19 09:45:00,
2013-05-19 05:50:00,62.7,62.4,29.95,NE,49,0.0,0.0,99,0.00,,---,0.00,0.00,VWS V14.01,2013-05-19 09:50:00,
2013-05-19 05:55:00,62.9,62.6,29.95,NE,49,0.0,0.0,99,0.00,,---,0.00,0.00,VWS V14.01,2013-05-19 09:55:00,
2013-05-19 06:00:00,62.7,62.4,29.95,NE,49,0.0,0.0,99,0.00,,---,0.00,0.00,VWS V14.01,2013-05-19 10:00:00,
2013-05-19 06:10:00,62.7,62.4,29.95,NE,49,0.0,0.0,99,0.00,,---,0.00,0.00,VWS V14.01,2013-05-19 10:10:00,
2013-05-19 06:15:00,62.6,62.3,29.95,NE,49,0.0,0.0,99,0.00,,---,0.00,0.00,VWS V14.01,2013-05-19 10:15:00,
2013-05-19 06:20:00,62.7,62.4,29.95,NE,49,0.0,0.0,99,0.00,,---,0.00,0.00,VWS V14.01,2013-05-19 10:20:00,
2013-05-19 06:25:00,63.1,62.8,29.95,NE,49,0.0,0.0,99,0.00,,---,0.00,0.00,VWS V14.01,2013-05-19 10:25:00,
2013-05-19 06:35:00,63.2,62.9,29.95,NE,49,0.0,0.0,99,0.00,,---,0.00,5.00,VWS V14.01,2013-05-19 10:35:00,
2013-05-19 06:40:00,63.4,63.1,29.95,NE,49,0.0,0.0,99,0.00,,---,0.00,7.00,VWS V14.01,2013-05-19 10:40:00,
2013-05-19 06:45:00,63.3,63.0,29.95,NE,49,0.0,0.0,99,0.00,,---,0.00,11.00,VWS V14.01,2013-05-19 10:45:00,
2013-05-19 06:55:00,63.2,62.9,29.95,NE,49,0.0,0.0,99,0.00,,---,0.00,12.00,VWS V14.01,2013-05-19 10:55:00,
2013-05-19 07:00:00,63.3,63.0,29.95,NE,49,0.0,0.0,99,0.00,,---,0.00,19.00,VWS V14.01,2013-05-19 11:00:00,
2013-05-19 07:10:00,63.3,63.0,29.95,NE,49,0.0,1.0,99,0.00,,---,0.00,16.00,VWS V14.01,2013-05-19 11:10:00,
2013-05-19 07:15:00,63.1,62.8,29.95,East,100,1.0,1.0,99,0.00,,---,0.00,16.00,VWS V14.01,2013-05-19 11:15:00,
2013-05-19 07:25:00,63.6,63.3,29.95,East,100,0.0,1.0,99,0.00,,---,0.00,39.00,VWS V14.01,2013-05-19 11:25:00,
2013-05-19 07:30:00,63.7,63.4,29.95,East,100,0.0,0.0,99,0.00,,---,0.00,47.00,VWS V14.01,2013-05-19 11:30:00,
2013-05-19 07:35:00,63.8,63.5,29.95,East,100,0.0,0.0,99,0.00,,---,0.00,60.00,VWS V14.01,2013-05-19 11:35:00,
2013-05-19 07:40:00,64.2,63.9,29.95,East,100,0.0,0.0,99,0.00,,---,0.00,79.00,VWS V14.01,2013-05-19 11:40:00,
2013-05-19 07:45:00,64.3,64.0,29.95,ENE,71,0.0,3.0,99,0.00,,---,0.00,77.00,VWS V14.01,2013-05-19 11:45:00,
2013-05-19 07:55:00,65.1,64.8,29.95,ENE,71,0.0,1.0,99,0.00,,---,0.00,54.00,VWS V14.01,2013-05-19 11:55:00,
2013-05-19 08:00:00,65.0,64.7,29.95,South,188,0.0,0.0,99,0.00,,---,0.00,172.00,VWS V14.01,2013-05-19 12:00:00,
2013-05-19 08:10:00,65.1,64.8,29.95,South,178,0.0,0.0,99,0.00,,---,0.00,134.00,VWS V14.01,2013-05-19 12:10:00,
2013-05-19 08:15:00,65.0,64.7,29.96,SW,216,0.0,2.0,99,0.00,,---,0.00,79.00,VWS V14.01,2013-05-19 12:15:00,
2013-05-19 08:20:00,65.2,64.9,29.96,SW,216,0.0,0.0,99,0.00,,---,0.00,120.00,VWS V14.01,2013-05-19 12:20:00,
2013-05-19 08:25:00,65.5,65.2,29.96,SW,216,0.0,2.0,99,0.00,,---,0.00,264.00,VWS V14.01,2013-05-19 12:25:00,
2013-05-19 08:35:00,66.0,65.7,29.96,WSW,248,0.0,1.0,99,0.00,,---,0.00,199.00,VWS V14.01,2013-05-19 12:35:00,
2013-05-19 08:40:00,66.4,66.1,29.97,ESE,119,0.0,0.0,99,0.00,,---,0.00,369.00,VWS V14.01,2013-05-19 12:40:00,
2013-05-19 08:50:00,67.3,67.0,29.97,SSW,193,0.0,3.0,99,0.00,,---,0.00,468.00,VWS V14.01,2013-05-19 12:50:00,
2013-05-19 09:00:00,67.3,66.7,29.97,South,191,1.0,1.0,98,0.00,,---,0.00,265.00,VWS V14.01,2013-05-19 13:00:00,
2013-05-19 09:05:00,67.1,66.2,29.97,South,191,0.0,2.0,97,0.00,,---,0.00,176.00,VWS V14.01,2013-05-19 13:05:00,
2013-05-19 09:10:00,67.0,66.4,29.97,South,190,0.0,1.0,98,0.00,,---,0.00,156.00,VWS V14.01,2013-05-19 13:10:00,
2013-05-19 09:20:00,67.4,66.5,29.97,ESE,117,0.0,2.0,97,0.00,,---,0.00,202.00,VWS V14.01,2013-05-19 13:20:00,
2013-05-19 09:25:00,67.5,66.6,29.97,ESE,117,0.0,2.0,97,0.00,,---,0.00,186.00,VWS V14.01,2013-05-19 13:25:00,
2013-05-19 09:35:00,67.8,66.9,29.97,East,83,0.0,3.0,97,0.00,,---,0.00,223.00,VWS V14.01,2013-05-19 13:35:00,
2013-05-19 09:40:00,67.9,67.0,29.97,East,83,0.0,3.0,97,0.00,,---,0.00,186.00,VWS V14.01,2013-05-19 13:40:00,
2013-05-19 09:50:00,68.5,67.6,29.97,South,186,0.0,1.0,97,0.00,,---,0.00,294.00,VWS V14.01,2013-05-19 13:50:00,
2013-05-19 09:55:00,69.4,68.5,29.97,South,186,1.0,1.0,97,0.00,,---,0.00,301.00,VWS V14.01,2013-05-19 13:55:00,
2013-05-19 10:10:00,68.9,67.4,29.97,South,173,1.0,2.0,95,0.00,,---,0.00,253.00,VWS V14.01,2013-05-19 14:10:00,
2013-05-19 10:15:00,68.8,67.3,29.97,NNW,340,1.0,1.0,95,0.00,,---,0.00,267.00,VWS V14.01,2013-05-19 14:15:00,
2013-05-19 10:20:00,69.0,67.8,29.98,West,273,2.0,2.0,96,0.00,,---,0.00,299.00,VWS V14.01,2013-05-19 14:20:00,
2013-05-19 10:25:00,69.6,68.4,29.98,South,171,0.0,2.0,96,0.00,,---,0.00,527.00,VWS V14.01,2013-05-19 14:25:00,
2013-05-19 10:30:00,70.0,68.2,29.98,South,172,0.0,1.0,94,0.00,,---,0.00,315.00,VWS V14.01,2013-05-19 14:30:00,
2013-05-19 10:35:00,70.1,68.0,29.98,SSW,207,0.0,4.0,93,0.00,,---,0.00,359.00,VWS V14.01,2013-05-19 14:35:00,
2013-05-19 10:41:00,70.5,68.4,29.98,SSW,207,1.0,1.0,93,0.00,,---,0.00,577.00,VWS V14.01,2013-05-19 14:41:00,
2013-05-19 10:50:00,71.2,68.1,29.98,SW,236,1.0,3.0,90,0.00,,---,0.00,717.00,VWS V14.01,2013-05-19 14:50:00,
2013-05-19 10:55:00,71.3,68.9,29.98,SW,234,0.0,2.0,92,0.00,,---,0.00,316.00,VWS V14.01,2013-05-19 14:55:00,
2013-05-19 11:00:00,71.3,68.5,29.98,SW,235,0.0,3.0,91,0.00,,---,0.00,800.00,VWS V14.01,2013-05-19 15:00:00,
2013-05-19 11:06:00,71.4,68.3,29.98,SW,219,0.0,2.0,90,0.00,,---,0.00,367.00,VWS V14.01,2013-05-19 15:06:00,
2013-05-19 11:15:00,71.0,68.9,29.99,SW,215,2.0,2.0,93,0.00,,---,0.00,374.00,VWS V14.01,2013-05-19 15:15:00,
2013-05-19 11:25:00,71.6,68.5,29.99,WSW,239,2.0,2.0,90,0.00,,---,0.00,373.00,VWS V14.01,2013-05-19 15:25:00,
2013-05-19 11:35:00,72.6,69.5,29.99,South,189,0.0,5.0,90,0.00,,---,0.00,388.00,VWS V14.01,2013-05-19 15:35:00,
2013-05-19 11:45:00,73.5,69.4,29.98,SW,222,2.0,3.0,87,0.00,,---,0.00,972.00,VWS V14.01,2013-05-19 15:45:00,
2013-05-19 12:00:00,74.8,71.3,29.97,SSW,212,0.0,3.0,89,0.00,,---,0.00,951.00,VWS V14.01,2013-05-19 16:00:00,
2013-05-19 12:11:00,75.7,70.2,29.97,NE,51,2.0,3.0,83,0.00,,---,0.00,1086.00,VWS V14.01,2013-05-19 16:11:00,
2013-05-19 12:20:00,76.2,69.2,29.97,West,261,2.0,2.0,79,0.00,,---,0.00,1041.00,VWS V14.01,2013-05-19 16:20:00,
2013-05-19 12:30:00,75.5,70.0,29.97,WNW,286,0.0,3.0,83,0.00,,---,0.00,185.00,VWS V14.01,2013-05-19 16:30:00,
2013-05-19 12:40:00,75.4,69.5,29.96,West,271,1.0,4.0,82,0.00,,---,0.00,998.00,VWS V14.01,2013-05-19 16:40:00,
2013-05-19 12:45:00,75.4,68.1,29.96,NE,49,2.0,4.0,78,0.00,,---,0.00,406.00,VWS V14.01,2013-05-19 16:45:00,
2013-05-19 12:55:00,77.4,69.2,29.95,SSW,199,1.0,2.0,76,0.00,,---,0.00,984.00,VWS V14.01,2013-05-19 16:55:00,
2013-05-19 13:05:00,77.8,69.6,29.95,NNW,344,0.0,2.0,76,0.00,,---,0.00,1007.00,VWS V14.01,2013-05-19 17:05:00,
2013-05-19 13:10:00,77.5,67.4,29.95,South,189,0.0,3.0,71,0.00,,---,0.00,1016.00,VWS V14.01,2013-05-19 17:10:00,
2013-05-19 13:20:00,78.4,71.0,29.94,SW,228,0.0,3.0,78,0.00,,---,0.00,1107.00,VWS V14.01,2013-05-19 17:20:00,
2013-05-19 13:25:00,77.1,69.0,29.94,SSW,196,0.0,2.0,76,0.00,,---,0.00,294.00,VWS V14.01,2013-05-19 17:25:00,
2013-05-19 13:35:00,78.4,69.4,29.94,WSW,249,0.0,0.0,74,0.00,,---,0.00,1160.00,VWS V14.01,2013-05-19 17:35:00,
2013-05-19 13:40:00,77.2,66.7,29.94,NW,313,2.0,5.0,70,0.00,,---,0.00,274.00,VWS V14.01,2013-05-19 17:40:00,
2013-05-19 13:45:00,78.3,68.1,29.94,NW,306,0.0,2.0,71,0.00,,---,0.00,1023.00,VWS V14.01,2013-05-19 17:45:00,
2013-05-19 14:00:00,80.3,68.8,29.93,NW,315,0.0,4.0,68,0.00,,---,0.00,1016.00,VWS V14.01,2013-05-19 18:00:00,
2013-05-19 14:10:00,80.4,69.3,29.92,SE,138,0.0,4.0,69,0.00,,---,0.00,1072.00,VWS V14.01,2013-05-19 18:10:00,
2013-05-19 14:15:00,79.4,67.1,29.92,West,271,2.0,4.0,66,0.00,,---,0.00,636.00,VWS V14.01,2013-05-19 18:15:00,
2013-05-19 14:20:00,79.4,67.9,29.92,NNW,332,3.0,3.0,68,0.00,,---,0.00,1034.00,VWS V14.01,2013-05-19 18:20:00,
2013-05-19 14:30:00,77.8,68.1,29.92,NNE,17,0.0,3.0,72,0.00,,---,0.00,272.00,VWS V14.01,2013-05-19 18:30:00,
2013-05-19 14:40:00,80.8,67.5,29.91,North,360,1.0,2.0,64,0.00,,---,0.00,960.00,VWS V14.01,2013-05-19 18:40:00,
2013-05-19 14:45:00,81.3,73.4,29.91,SSW,201,1.0,2.0,77,0.00,,---,0.00,979.00,VWS V14.01,2013-05-19 18:45:00,
2013-05-19 14:50:00,80.7,69.6,29.91,NE,53,1.0,2.0,69,0.00,,---,0.00,932.00,VWS V14.01,2013-05-19 18:50:00,
2013-05-19 14:55:00,80.4,69.7,29.90,NE,47,0.0,2.0,70,0.00,,---,0.00,939.00,VWS V14.01,2013-05-19 18:55:00,
2013-05-19 15:05:00,81.8,73.9,29.90,East,86,0.0,4.0,77,0.00,,---,0.00,958.00,VWS V14.01,2013-05-19 19:05:00,
2013-05-19 15:15:00,80.6,71.2,29.90,South,190,1.0,3.0,73,0.00,,---,0.00,1011.00,VWS V14.01,2013-05-19 19:15:00,
2013-05-19 15:20:00,81.2,71.3,29.90,South,189,0.0,3.0,72,0.00,,---,0.00,1005.00,VWS V14.01,2013-05-19 19:20:00,
2013-05-19 15:30:00,81.2,70.5,29.90,NW,325,0.0,2.0,70,0.00,,---,0.00,900.00,VWS V14.01,2013-05-19 19:30:00,
2013-05-19 15:35:00,80.9,68.9,29.90,South,173,1.0,3.0,67,0.00,,---,0.00,940.00,VWS V14.01,2013-05-19 19:35:00,
2013-05-19 15:45:00,79.1,67.6,29.89,NNW,343,0.0,3.0,68,0.00,,---,0.00,156.00,VWS V14.01,2013-05-19 19:45:00,
2013-05-19 15:55:00,77.8,70.4,29.89,SE,132,0.0,3.0,78,0.00,,---,0.00,251.00,VWS V14.01,2013-05-19 19:55:00,
2013-05-19 16:05:00,78.5,69.5,29.89,South,169,0.0,2.0,74,0.00,,---,0.00,200.00,VWS V14.01,2013-05-19 20:05:00,
2013-05-19 16:10:00,78.7,68.5,29.89,South,169,0.0,1.0,71,0.00,,---,0.00,884.00,VWS V14.01,2013-05-19 20:10:00,
2013-05-19 16:15:00,80.0,71.4,29.89,South,169,0.0,1.0,75,0.00,,---,0.00,793.00,VWS V14.01,2013-05-19 20:15:00,
2013-05-19 16:25:00,81.3,69.3,29.88,NNW,330,0.0,3.0,67,0.00,,---,0.00,761.00,VWS V14.01,2013-05-19 20:25:00,
2013-05-19 16:30:00,81.5,70.8,29.88,ENE,59,0.0,2.0,70,0.00,,---,0.00,758.00,VWS V14.01,2013-05-19 20:30:00,
2013-05-19 16:40:00,80.2,67.8,29.88,SW,231,0.0,1.0,66,0.00,,---,0.00,128.00,VWS V14.01,2013-05-19 20:40:00,
2013-05-19 16:50:00,80.1,67.7,29.89,ENE,61,0.0,3.0,66,0.00,,---,0.00,113.00,VWS V14.01,2013-05-19 20:50:00,
2013-05-19 16:55:00,79.9,68.8,29.90,NE,53,0.0,1.0,69,0.00,,---,0.00,190.00,VWS V14.01,2013-05-19 20:55:00,
2013-05-19 17:00:00,80.2,68.3,29.89,NE,53,0.0,1.0,67,0.00,,---,0.00,151.00,VWS V14.01,2013-05-19 21:00:00,
2013-05-19 17:10:00,79.1,71.3,29.89,East,88,1.0,1.0,77,0.00,,---,0.00,773.00,VWS V14.01,2013-05-19 21:10:00,
2013-05-19 17:20:00,80.4,69.3,29.89,SSW,206,1.0,2.0,69,0.00,,---,0.00,724.00,VWS V14.01,2013-05-19 21:20:00,
2013-05-19 17:30:00,78.8,71.4,29.89,SW,224,0.0,3.0,78,0.00,,---,0.00,628.00,VWS V14.01,2013-05-19 21:30:00,
2013-05-19 17:35:00,79.9,71.7,29.89,SW,224,0.0,1.0,76,0.00,,---,0.00,587.00,VWS V14.01,2013-05-19 21:35:00,
2013-05-19 17:40:00,79.8,71.9,29.89,SW,224,0.0,0.0,77,0.00,,---,0.00,557.00,VWS V14.01,2013-05-19 21:40:00,
2013-05-19 17:45:00,80.0,71.0,29.89,SW,224,0.0,0.0,74,0.00,,---,0.00,520.00,VWS V14.01,2013-05-19 21:45:00,
2013-05-19 17:50:00,80.0,71.4,29.89,SSW,195,0.0,1.0,75,0.00,,---,0.00,504.00,VWS V14.01,2013-05-19 21:50:00,
2013-05-19 18:00:00,80.5,69.0,29.89,ENE,61,0.0,2.0,68,0.00,,---,0.00,443.00,VWS V14.01,2013-05-19 22:00:00,
2013-05-19 18:05:00,81.5,69.5,29.89,SE,128,0.0,2.0,67,0.00,,---,0.00,357.00,VWS V14.01,2013-05-19 22:05:00,
2013-05-19 18:10:00,82.0,68.2,29.89,SSW,204,0.0,0.0,63,0.00,,---,0.00,415.00,VWS V14.01,2013-05-19 22:10:00,
2013-05-19 18:15:00,80.8,69.7,29.88,SSW,204,0.0,1.0,69,0.00,,---,0.00,380.00,VWS V14.01,2013-05-19 22:15:00,
2013-05-19 18:25:00,79.5,68.9,29.88,SSW,204,0.0,2.0,70,0.00,,---,0.00,267.00,VWS V14.01,2013-05-19 22:25:00,
2013-05-19 18:30:00,79.7,68.2,29.87,SSW,204,1.0,1.0,68,0.00,,---,0.00,93.00,VWS V14.01,2013-05-19 22:30:00,
2013-05-19 18:35:00,80.0,68.9,29.87,SSW,204,0.0,1.0,69,0.00,,---,0.00,260.00,VWS V14.01,2013-05-19 22:35:00,
2013-05-19 18:45:00,79.7,67.8,29.88,SSW,204,0.0,1.0,67,0.00,,---,0.00,211.00,VWS V14.01,2013-05-19 22:45:00,
2013-05-19 18:50:00,79.6,69.0,29.87,SSW,204,0.0,0.0,70,0.00,,---,0.00,148.00,VWS V14.01,2013-05-19 22:50:00,
2013-05-19 18:55:00,79.5,67.2,29.87,SSW,204,0.0,1.0,66,0.00,,---,0.00,269.00,VWS V14.01,2013-05-19 22:55:00,
2013-05-19 19:00:00,79.0,68.4,29.87,SSW,204,0.0,0.0,70,0.00,,---,0.00,214.00,VWS V14.01,2013-05-19 23:00:00,
2013-05-19 19:05:00,79.5,66.7,29.87,SSW,204,1.0,1.0,65,0.00,,---,0.00,234.00,VWS V14.01,2013-05-19 23:05:00,
2013-05-19 19:10:00,79.6,67.7,29.87,SSW,204,0.0,1.0,67,0.00,,---,0.00,213.00,VWS V14.01,2013-05-19 23:10:00,
2013-05-19 19:20:00,79.3,67.4,29.87,SSW,204,0.0,0.0,67,0.00,,---,0.00,67.00,VWS V14.01,2013-05-19 23:20:00,
2013-05-19 19:30:00,79.2,67.3,29.87,SSW,204,0.0,0.0,67,0.00,,---,0.00,118.00,VWS V14.01,2013-05-19 23:30:00,
2013-05-19 19:40:00,78.1,67.5,29.87,SSW,204,0.0,0.0,70,0.00,,---,0.00,44.00,VWS V14.01,2013-05-19 23:40:00,
2013-05-19 19:45:00,78.1,67.9,29.86,SSW,204,0.0,0.0,71,0.00,,---,0.00,39.00,VWS V14.01,2013-05-19 23:45:00,
2013-05-19 19:55:00,77.3,69.5,29.88,SSW,204,0.0,0.0,77,0.00,,---,0.00,35.00,VWS V14.01,2013-05-19 23:55:00,
2013-05-19 20:00:00,77.5,67.8,29.88,SSW,204,0.0,0.0,72,0.00,,---,0.00,32.00,VWS V14.01,2013-05-20 00:00:00,
2013-05-19 20:05:00,77.5,67.4,29.88,SSW,204,0.0,0.0,71,0.00,,---,0.00,28.00,VWS V14.01,2013-05-20 00:05:00,
2013-05-19 20:11:00,77.3,67.6,29.88,SSW,204,0.0,0.0,72,0.00,,---,0.00,23.00,VWS V14.01,2013-05-20 00:11:00,
2013-05-19 20:20:00,77.2,66.7,29.88,SSW,204,0.0,0.0,70,0.00,,---,0.00,18.00,VWS V14.01,2013-05-20 00:20:00,
2013-05-19 20:25:00,76.9,66.8,29.88,SSW,204,0.0,0.0,71,0.00,,---,0.00,12.00,VWS V14.01,2013-05-20 00:25:00,
2013-05-19 20:30:00,76.3,67.0,29.88,SSW,204,0.0,0.0,73,0.00,,---,0.00,11.00,VWS V14.01,2013-05-20 00:30:00,
2013-05-19 20:35:00,76.0,66.7,29.88,SSW,204,0.0,0.0,73,0.00,,---,0.00,7.00,VWS V14.01,2013-05-20 00:35:00,
2013-05-19 20:40:00,75.6,67.1,29.88,South,191,0.0,0.0,75,0.00,,---,0.00,5.00,VWS V14.01,2013-05-20 00:40:00,
2013-05-19 20:50:00,74.4,67.1,29.88,South,191,0.0,1.0,78,0.00,,---,0.00,0.00,VWS V14.01,2013-05-20 00:50:00,
2013-05-19 20:55:00,74.6,66.5,29.88,NW,315,0.0,0.0,76,0.00,,---,0.00,0.00,VWS V14.01,2013-05-20 00:55:00,
2013-05-19 21:00:00,74.5,66.4,29.88,NW,315,0.0,0.0,76,0.00,,---,0.00,0.00,VWS V14.01,2013-05-20 01:00:00,
2013-05-19 21:10:00,74.2,66.5,29.88,NW,315,0.0,0.0,77,0.00,,---,0.00,0.00,VWS V14.01,2013-05-20 01:10:00,
2013-05-19 21:20:00,73.8,66.5,29.88,NW,315,0.0,0.0,78,0.00,,---,0.00,0.00,VWS V14.01,2013-05-20 01:20:00,
2013-05-19 21:30:00,73.5,66.6,29.88,NW,315,0.0,0.0,79,0.00,,---,0.00,0.00,VWS V14.01,2013-05-20 01:30:00,
2013-05-19 21:40:00,72.7,66.5,29.88,NW,315,0.0,0.0,81,0.00,,---,0.00,0.00,VWS V14.01,2013-05-20 01:40:00,
2013-05-19 21:50:00,72.4,66.9,29.89,NW,315,0.0,0.0,83,0.00,,---,0.00,0.00,VWS V14.01,2013-05-20 01:50:00,
2013-05-19 21:55:00,72.1,67.0,29.89,NW,315,0.0,0.0,84,0.00,,---,0.00,0.00,VWS V14.01,2013-05-20 01:55:00,
2013-05-19 22:00:00,71.9,66.8,29.89,NW,315,0.0,0.0,84,0.00,,---,0.00,0.00,VWS V14.01,2013-05-20 02:00:00,
2013-05-19 22:10:00,71.6,66.9,29.89,NW,315,0.0,0.0,85,0.00,,---,0.00,0.00,VWS V14.01,2013-05-20 02:10:00,
2013-05-19 22:15:00,71.6,66.9,29.89,NW,315,0.0,0.0,85,0.00,,---,0.00,0.00,VWS V14.01,2013-05-20 02:15:00,
2013-05-19 22:25:00,71.5,67.1,29.89,NW,315,0.0,0.0,86,0.00,,---,0.00,0.00,VWS V14.01,2013-05-20 02:25:00,
2013-05-19 22:30:00,71.5,66.8,29.89,NW,315,0.0,0.0,85,0.00,,---,0.00,0.00,VWS V14.01,2013-05-20 02:30:00,
2013-05-19 22:35:00,71.5,66.8,29.89,NW,315,0.0,0.0,85,0.00,,---,0.00,0.00,VWS V14.01,2013-05-20 02:35:00,
2013-05-19 22:40:00,71.4,66.7,29.89,NW,315,0.0,0.0,85,0.00,,---,0.00,0.00,VWS V14.01,2013-05-20 02:40:00,
2013-05-19 22:45:00,71.3,66.9,29.89,NW,315,0.0,0.0,86,0.00,,---,0.00,0.00,VWS V14.01,2013-05-20 02:45:00,
2013-05-19 22:55:00,71.0,66.9,29.90,NW,315,0.0,0.0,87,0.00,,---,0.00,0.00,VWS V14.01,2013-05-20 02:55:00,
2013-05-19 23:05:00,70.7,67.0,29.90,NW,315,0.0,0.0,88,0.00,,---,0.00,0.00,VWS V14.01,2013-05-20 03:05:00,
2013-05-19 23:15:00,70.3,66.9,29.90,NW,315,0.0,0.0,89,0.00,,---,0.00,0.00,VWS V14.01,2013-05-20 03:15:00,
2013-05-19 23:20:00,70.3,67.2,29.90,NW,315,0.0,0.0,90,0.00,,---,0.00,0.00,VWS V14.01,2013-05-20 03:20:00,
2013-05-19 23:30:00,70.0,67.3,29.90,NW,315,0.0,1.0,91,0.00,,---,0.00,0.00,VWS V14.01,2013-05-20 03:30:00,
2013-05-19 23:40:00,69.8,66.7,29.90,NW,315,0.0,0.0,90,0.00,,---,0.00,0.00,VWS V14.01,2013-05-20 03:40:00,
2013-05-19 23:45:00,69.8,67.1,29.91,SW,229,0.0,1.0,91,0.00,,---,0.00,0.00,VWS V14.01,2013-05-20 03:45:00,
2013-05-19 23:50:00,69.5,66.8,29.91,SW,229,0.0,1.0,91,0.00,,---,0.00,0.00,VWS V14.01,2013-05-20 03:50:00,